This demonstration page uses our WeatherBlox Daily Observations layout. Learn more.

Left ArrowRight Arrow

36.17497, -115.13722

Hourly Observations for March 25, 2021

Temp ( °F °C ) Dew Point ( °F °C ) Humidity (%) Winds ( mph kmh ) Pressure ( in mb ) Visibility ( mi km ) Precip ( " mm )
12:53 am 00:53 Clear 55 12.8 13 -10.6 19 19 NW 6 9 29.72 1006 10 16 0.00 0.00
1:53 am 01:53 Clear 53 11.7 15 -9.4 22 22 NNW 7 11 29.71 1006 10 16 0.00 0.00
2:53 am 02:53 Clear 53 11.7 16 -8.9 23 23 Calm 29.67 1005 10 16 0.00 0.00
3:53 am 03:53 Clear 53 11.7 17 -8.3 24 24 Calm 29.65 1004 10 16 0.00 0.00
4:53 am 04:53 Clear 51 10.6 17 -8.3 26 26 Calm 29.63 1004 10 16 0.00 0.00
5:53 am 05:53 Clear 56 13.3 16 -8.9 21 21 S 10 17 29.61 1003 10 16 0.00 0.00
6:53 am 06:53 Sunny 56 13.3 17 -8.3 22 22 S 12 19 29.60 1003 10 16 0.00 0.00
7:53 am 07:53 Sunny 56 13.3 17 -8.3 22 22 S 8 13 29.61 1003 10 16 0.00 0.00
8:53 am 08:53 Sunny 58 14.4 15 -9.4 18 18 S 15 24 29.61 1003 10 16 0.00 0.00
9:53 am 09:53 Sunny 62 16.7 15 -9.4 16 16 S 18 30 29.60 1002 10 16 0.00 0.00
10:53 am 10:53 Sunny 63 17.2 15 -9.4 15 15 S 18 30 29.60 1002 10 16 0.00 0.00
11:53 am 11:53 Sunny 64 17.8 15 -9.4 15 15 S 18 30 29.60 1002 10 16 0.00 0.00
12:53 pm 12:53 Sunny 66 18.9 15 -9.4 14 14 SSW 21 33 29.56 1001 10 16 0.00 0.00
1:53 pm 13:53 Sunny 67 19.4 16 -8.9 14 14 SSW 18 30 29.53 1000 10 16 0.00 0.00
2:28 pm 14:28 Sunny 67 19.4 16 -8.9 14 14 SW 14 22 29.42 996 10 16 0.00 0.00
2:53 pm 14:53 Sunny 68 20 16 -8.9 13 13 S 20 31 29.50 999 10 16 0.00 0.00
3:53 pm 15:53 Sunny 68 20 16 -8.9 13 13 SSW 15 24 29.49 999 10 16 0.00 0.00
4:53 pm 16:53 Cloudy 68 20 17 -8.3 14 14 SSW 13 20 29.49 999 10 16 0.00 0.00
5:53 pm 17:53 Cloudy 66 18.9 20 -6.7 17 17 SSW 15 24 29.49 999 10 16 0.00 0.00
6:53 pm 18:53 Cloudy 65 18.3 24 -4.4 21 21 SSW 15 24 29.51 999 10 16 0.00 0.00
7:53 pm 19:53 Mostly Clear 62 16.7 30 -1.1 30 30 WSW 17 28 29.54 1001 10 16 0.00 0.00
8:53 pm 20:53 Mostly Clear 60 15.6 32 0 35 35 WSW 18 30 29.57 1001 10 16 0.00 0.00
9:53 pm 21:53 Clear 58 14.4 32 0 38 38 SSW 12 19 29.59 1002 10 16 0.00 0.00
10:22 pm 22:22 Mostly Cloudy 60 15.6 27 -2.8 28 28 NNW 15 24 29.56 1001 10 16 0.00 0.00
10:53 pm 22:53 Cloudy 57 13.9 31 -0.6 37 37 NW 25 41 29.64 1004 10 16 0.00 0.00
11:00 pm 23:00 Cloudy 57 13.9 32 0 39 39 NW 22 35 29.59 1002 10 16 0.00 0.00
11:53 pm 23:53 Mostly Clear with Light Rain 54 12.2 33 0.6 45 45 NW 20 31 29.66 1005 10 16 0.00 0.00

Powered by AerisWeather